Wind_Speed
14 14 16 18 18 18 17 15 12 11 13 14 15 14 14 14 14 14 14 14 17 21 20 17 14 13 13 14 17 19 19 20 20 19 16 15 15 15 16 16 17 18 17 15 16 19 18 16 16 14 14 15 15 17 18 17 16 15 13 12 13 13 13 12 9 5 8 11 9 11 17 17 15 16 17 15 14 12 12 14 14 13 13 12 12
18 14 14 15 17 19 19 18 16 14 14 14 14 15 15 15 14 11 10 13 16 19 19 17 15 13 13 14 15 16 17 18 19 19 17 16 15 15 17 17 16 18 19 16 16 18 18 17 16 14 14 15 15 16 17 17 16 15 14 14 13 14 15 13 11 7 7 10 10 11 16 18 14 15 17 17 16 15 13 14 15 15 15 14 13
23 19 15 14 17 18 18 18 17 16 15 14 14 15 15 15 13 11 11 13 14 15 16 16 15 14 13 13 14 15 16 16 17 18 18 17 17 18 19 18 16 19 21 19 19 20 18 17 17 15 14 15 15 15 15 17 17 14 14 15 13 14 15 14 12 10 8 9 11 11 15 18 15 14 17 17 17 16 14 14 15 16 16 15 14
23 23 19 18 18 18 18 18 17 16 15 14 14 15 16 16 14 13 14 15 14 14 14 15 16 16 15 14 15 14 15 16 16 18 17 16 17 18 19 18 17 19 21 18 18 20 18 17 17 15 15 15 16 14 13 16 18 17 16 15 14 13 16 16 13 11 9 9 10 10 13 17 16 15 17 16 16 17 16 16 16 16 16 16 15
19 20 21 21 21 19 19 19 19 18 17 15 14 15 16 16 16 15 15 17 16 15 16 16 16 16 16 15 16 15 15 16 16 17 16 15 16 17 18 18 15 18 20 18 18 20 18 17 17 16 15 16 17 15 13 14 17 18 17 15 14 14 15 17 15 12 11 9 10 10 11 13 14 15 17 16 15 17 18 18 17 17 17 18 17
18 19 19 21 21 21 21 20 20 20 19 17 15 15 15 16 16 15 15 16 17 17 17 17 16 16 16 16 16 16 16 15 15 16 16 15 16 18 19 18 16 18 20 18 19 19 17 17 17 16 16 17 17 15 14 14 16 17 18 16 14 13 14 16 14 12 11 8 8 10 11 11 12 13 15 16 14 14 16 17 18 18 18 19 18
20 20 19 20 20 21 22 22 21 21 19 18 16 16 16 16 15 15 16 16 16 17 17 16 16 17 17 17 17 16 16 15 15 15 15 16 18 19 18 17 16 19 19 18 19 19 17 18 19 17 15 15 16 15 14 15 14 14 16 16 15 14 14 14 12 11 11 9 7 8 10 11 10 9 12 14 14 13 12 13 14 16 19 19 19
21 21 20 20 21 22 23 22 22 21 20 18 17 17 17 17 16 15 16 17 18 18 18 17 16 17 18 17 17 16 16 15 16 16 15 15 16 18 18 16 15 16 17 18 21 20 17 18 18 16 15 15 15 14 14 15 14 12 13 14 14 14 13 12 10 11 14 14 11 9 8 9 10 8 9 12 12 12 14 14 12 11 15 17 18
20 21 21 21 21 23 22 21 21 22 21 19 18 17 17 17 17 16 16 17 18 19 20 19 17 18 18 18 17 16 15 16 17 18 17 16 16 18 20 18 14 12 13 17 21 19 16 15 15 14 13 13 13 13 13 15 14 13 14 15 14 13 12 12 11 12 15 14 10 9 8 8 9 10 11 13 13 11 14 18 14 9 10 12 14
20 20 21 21 21 23 22 20 22 23 22 20 19 17 16 16 16 17 16 16 18 19 21 21 19 17 17 18 18 17 18 20 22 22 21 19 19 18 19 18 16 13 13 16 18 16 14 14 14 13 11 11 11 11 11 12 12 14 14 16 16 14 12 13 13 13 14 12 12 11 10 9 10 12 12 14 14 11 11 15 14 9 9 10 10
20 20 21 22 22 22 22 22 22 22 21 20 19 17 17 16 17 18 18 18 19 20 22 23 22 20 19 19 21 23 24 25 24 23 21 20 18 17 16 17 18 17 16 17 15 14 15 14 13 12 11 10 10 10 10 9 11 13 13 14 17 17 15 14 13 13 13 13 14 15 12 10 11 12 11 11 14 13 12 13 12 9 9 8 7
21 20 21 23 23 23 22 23 22 22 22 21 19 17 17 17 17 19 19 19 21 23 24 25 25 25 24 23 25 28 28 26 24 22 21 19 16 15 15 16 17 17 17 17 16 15 15 14 13 12 11 10 11 11 12 11 12 13 13 14 16 18 17 16 14 13 13 13 15 15 13 10 9 10 10 12 14 13 12 12 11 9 9 9 6
21 20 21 23 23 23 22 23 22 21 22 21 19 17 16 15 15 15 15 16 19 22 25 26 25 26 27 27 27 28 28 26 23 21 20 19 16 16 16 18 18 18 19 19 18 15 15 14 13 12 10 11 11 12 13 14 13 13 13 12 13 14 15 15 14 14 14 14 15 16 15 11 7 7 9 13 14 12 11 11 11 10 9 8 5
20 21 21 22 23 23 22 22 21 20 21 20 19 18 17 16 14 13 10 8 10 13 16 19 20 21 23 24 25 27 27 25 22 21 21 20 18 18 18 19 19 20 20 19 17 15 15 14 13 12 11 11 12 13 14 15 14 12 11 10 11 11 12 13 13 13 13 14 15 15 14 11 9 9 12 13 13 11 10 10 10 10 8 6 4
19 20 21 21 23 24 22 21 20 19 18 18 18 18 17 16 14 12 10 6 2 2 5 7 11 14 15 17 18 21 23 23 23 22 21 20 19 18 18 18 19 19 19 18 17 17 16 13 11 11 11 11 12 13 15 16 14 12 12 11 10 10 10 11 12 13 13 13 14 14 12 9 8 10 11 12 11 9 8 8 8 8 6 5 4
20 21 21 21 21 22 22 21 19 17 17 17 17 17 17 16 15 13 11 10 8 6 6 6 6 8 10 12 12 12 15 19 22 22 20 19 19 18 18 19 20 20 20 19 18 17 15 13 11 11 11 11 12 12 14 16 16 15 16 15 13 12 10 7 8 11 12 12 12 11 10 9 9 10 11 11 10 9 8 8 7 7 6 4 5
21 21 21 20 19 19 20 21 20 18 17 17 17 17 17 16 16 16 15 15 15 15 14 14 13 13 12 11 10 9 10 13 18 20 19 18 18 19 20 21 21 22 22 21 19 17 15 14 13 12 12 12 12 13 15 16 18 20 22 21 18 17 19 18 14 13 14 14 15 15 13 12 12 12 12 11 11 10 8 6 6 5 3 3 3
21 20 20 19 18 17 18 19 19 19 17 17 17 17 17 17 17 19 20 19 18 18 20 22 21 20 20 17 14 13 12 13 16 18 18 16 17 19 22 23 23 23 23 21 19 18 16 15 14 14 14 14 15 16 16 18 22 25 26 25 22 20 20 21 22 20 19 18 17 16 14 12 11 11 11 10 9 9 7 6 5 3 1 1 1
21 21 20 19 17 16 16 17 18 18 18 16 16 16 17 17 18 21 24 23 21 21 25 27 26 25 25 21 17 16 16 15 15 16 17 17 18 20 22 23 23 23 22 20 19 18 17 17 16 16 16 17 19 20 19 20 22 22 20 20 23 22 20 21 22 21 20 19 18 17 15 13 12 12 11 10 9 8 7 7 6 4 2 2 1
21 21 22 20 18 16 17 17 17 18 18 16 15 17 20 21 22 24 25 26 25 26 29 30 29 28 27 23 20 19 17 15 14 14 14 17 19 20 21 23 23 22 21 20 19 18 18 18 18 18 19 20 22 23 21 18 16 14 14 17 22 23 22 21 21 20 20 20 19 18 17 15 13 12 11 10 9 8 7 6 5 5 4 4 2
21 23 24 22 19 17 17 19 20 19 17 16 16 17 19 22 24 26 27 28 29 29 29 30 31 31 29 25 23 21 19 15 12 10 10 14 18 19 20 21 23 23 22 21 20 19 18 19 20 21 22 23 23 21 18 15 12 13 15 17 20 22 23 23 22 21 22 21 20 18 17 14 13 12 11 9 9 8 6 5 5 5 4 4 3
22 24 26 24 21 18 17 20 23 22 19 17 18 19 20 22 25 27 29 31 30 30 30 31 33 34 32 28 25 23 20 16 12 8 6 10 15 17 19 21 23 24 24 23 22 20 19 18 19 20 21 22 20 17 15 14 15 16 17 18 20 23 24 24 23 21 20 19 18 16 15 13 12 12 10 10 8 7 6 5 4 4 4 4 3
22 26 27 26 25 21 17 19 23 26 25 22 20 21 22 23 25 27 29 30 31 30 31 33 34 35 33 31 28 25 22 18 14 10 6 7 11 14 17 19 21 23 25 25 23 22 21 20 18 17 17 18 17 16 15 16 17 19 20 21 23 24 23 23 22 20 19 17 16 15 13 12 11 11 11 10 9 8 8 6 5 4 3 3 4
22 24 25 26 26 24 21 21 23 26 28 26 21 20 20 21 22 24 25 29 31 29 28 29 31 31 31 31 30 28 25 23 19 14 10 9 11 14 16 18 19 21 23 24 23 22 22 21 19 17 16 17 17 17 16 17 18 21 23 24 24 23 22 21 20 18 17 15 14 13 12 11 10 11 11 10 9 8 9 8 8 7 6 6 6
21 21 23 25 25 24 24 26 26 27 28 27 23 21 22 22 20 19 21 24 26 27 27 27 28 28 28 29 29 27 25 24 23 19 15 14 15 16 18 19 19 21 23 25 24 23 22 20 18 17 17 18 19 19 19 20 22 23 24 24 23 21 20 18 16 15 15 13 12 12 11 11 11 11 10 10 9 9 9 9 9 9 9 8 8
20 20 21 23 24 24 25 27 28 28 29 29 27 25 26 26 22 18 18 19 20 21 23 26 27 28 28 27 26 25 23 23 23 22 20 20 21 20 21 21 21 22 25 25 24 23 22 21 19 19 19 21 22 22 23 23 23 23 22 21 20 19 17 16 15 15 14 13 12 11 10 10 11 12 11 11 11 11 11 9 8 9 9 8 8
18 17 18 19 20 23 24 25 26 27 28 28 27 26 27 28 26 22 18 17 18 18 18 21 23 25 25 25 24 25 24 22 21 20 21 23 23 22 23 24 25 25 25 25 24 23 22 21 21 21 21 23 24 25 24 23 22 21 20 18 17 17 16 15 16 17 16 14 13 12 11 11 12 12 12 12 13 14 13 11 9 8 7 7 8
16 16 16 16 17 19 21 22 24 25 25 26 26 26 25 25 25 23 20 18 18 17 17 19 21 21 22 22 21 22 23 23 21 20 19 21 22 22 23 25 25 26 26 25 24 24 23 22 23 23 23 24 25 24 22 21 20 20 19 18 17 17 16 16 17 18 18 16 14 13 12 12 12 12 12 13 13 14 13 12 10 9 7 7 7
16 15 15 14 15 17 17 18 20 21 22 23 24 24 24 23 23 22 21 19 18 17 18 19 19 20 21 21 19 18 18 18 18 17 17 18 19 20 21 22 22 23 23 22 21 21 21 21 21 21 22 23 22 22 21 20 20 20 19 19 19 19 19 18 17 17 16 14 14 13 13 12 12 11 12 13 13 13 13 12 11 10 9 8 8
16 15 14 13 14 15 15 15 17 18 18 19 20 20 20 20 20 20 19 18 17 17 18 18 17 18 19 19 18 16 14 13 13 14 16 17 17 17 18 18 17 16 15 13 13 15 16 17 18 18 20 21 21 22 22 21 21 21 21 21 21 21 20 18 17 18 18 17 15 15 14 13 12 12 12 12 12 13 13 12 10 9 9 8 8
16 15 15 13 12 13 14 14 15 16 15 16 17 17 17 18 18 17 16 16 15 15 15 15 15 16 17 18 17 16 14 12 12 13 15 16 15 15 15 14 13 12 9 7 9 12 14 16 17 18 19 21 21 22 22 22 23 23 22 22 22 21 20 19 19 20 20 20 18 17 16 15 14 13 13 12 11 11 11 10 9 9 8 8 7
20 20 18 15 11 10 11 11 12 13 13 13 14 15 15 16 16 16 15 15 14 13 13 13 13 13 14 15 15 16 14 13 12 13 13 13 13 13 13 12 12 10 8 7 12 16 17 18 19 19 19 21 21 21 22 23 22 22 22 22 22 21 21 20 20 20 20 20 19 18 17 16 15 15 13 12 11 10 10 9 9 8 8 9 9
21 23 22 19 15 12 10 9 9 10 10 11 12 13 14 14 15 15 15 15 14 13 12 11 11 11 12 11 11 11 11 11 10 10 10 10 10 10 11 12 11 10 9 10 15 18 18 19 20 19 20 20 20 21 22 22 22 22 22 22 23 22 22 21 21 22 22 21 20 19 17 15 14 14 13 12 11 11 10 9 9 9 8 9 9
18 20 21 20 19 16 13 10 8 6 7 8 9 10 11 12 11 12 13 14 15 16 15 12 10 9 9 9 9 8 7 6 5 5 7 7 7 6 8 9 9 9 10 12 15 17 18 20 20 20 20 20 21 21 21 22 23 23 23 23 23 23 22 22 22 22 21 20 19 18 17 15 13 12 11 11 10 11 11 10 10 10 9 8 9
17 16 16 17 19 19 18 15 11 7 4 4 6 7 8 8 8 9 10 11 12 14 15 15 13 11 10 9 9 8 7 5 3 3 6 7 8 7 6 8 9 11 12 13 15 17 18 20 20 20 20 20 20 20 21 22 22 22 22 22 21 21 21 21 21 20 19 19 18 18 17 16 14 12 12 12 12 11 11 10 10 9 8 7 7
19 16 14 14 16 18 19 20 18 12 7 4 3 3 4 5 5 6 7 8 9 10 11 12 12 12 11 11 11 10 8 6 4 3 3 4 5 4 5 6 10 12 13 14 15 16 18 19 19 19 19 19 19 19 20 21 21 20 20 20 20 20 19 18 18 17 17 17 17 17 16 15 14 12 12 13 12 11 10 9 9 8 8 7 7
18 17 13 12 14 16 17 18 19 18 13 8 5 4 3 3 3 3 3 4 5 6 8 9 9 10 10 10 10 10 8 6 4 3 1 1 1 2 3 5 8 11 13 14 15 16 17 18 18 18 18 18 18 18 18 19 18 18 19 18 18 18 18 17 16 16 14 14 15 16 15 15 14 12 11 11 10 9 8 8 7 8 9 9 8
16 16 12 10 11 13 14 15 17 18 17 13 9 6 4 4 3 3 3 2 2 3 4 6 6 7 7 8 8 7 8 7 6 6 5 4 3 2 1 3 6 9 12 14 15 15 16 16 17 16 16 17 17 17 17 17 17 17 18 17 17 17 16 15 15 15 14 13 13 13 13 12 12 10 9 9 9 8 7 7 7 7 8 9 8
15 15 12 9 8 10 11 13 15 17 17 15 12 9 7 6 5 4 4 3 2 2 3 4 5 5 6 7 8 9 9 9 8 7 7 6 3 2 4 6 7 9 12 14 15 15 15 15 15 15 15 15 16 16 16 17 17 17 17 16 15 15 14 13 13 13 12 11 11 11 10 10 9 8 8 8 8 7 7 7 7 7 8 8 8
15 15 13 9 6 7 9 10 12 14 14 14 13 12 9 7 5 5 5 4 4 5 5 4 4 5 6 8 9 10 9 9 8 5 4 3 3 5 8 9 10 11 13 14 15 15 14 14 14 14 14 14 14 14 15 15 16 16 15 14 14 14 14 13 12 12 11 11 10 9 9 9 8 7 7 8 8 7 7 7 7 7 7 8 7
14 15 14 10 7 6 6 8 10 11 12 13 13 12 11 10 9 6 6 6 6 7 7 5 5 6 7 8 10 10 8 7 6 5 3 2 3 7 10 11 11 11 13 14 14 14 13 13 13 13 13 13 13 12 12 13 13 13 13 13 13 13 12 11 11 11 11 11 10 9 10 9 8 8 9 10 9 8 7 7 7 6 7 7 8
13 14 14 12 9 6 5 5 7 8 8 10 11 11 12 13 12 9 7 6 6 7 6 4 3 4 6 8 9 9 8 6 5 4 3 3 4 6 9 11 11 11 12 13 13 12 12 12 12 12 12 12 11 11 10 10 10 10 10 10 10 10 9 9 9 9 9 9 9 9 10 9 9 10 11 10 9 8 7 7 7 7 7 8 9
12 13 13 12 10 8 6 5 5 6 6 7 8 10 12 13 13 12 10 7 6 7 5 1 1 3 5 7 9 9 7 6 5 4 2 2 3 5 7 9 10 10 10 11 11 10 10 10 10 10 10 10 9 9 9 9 9 8 8 8 7 7 7 7 7 7 7 7 8 8 8 8 7 7 8 8 7 7 8 8 8 8 9 9 9
10 11 10 9 9 10 9 8 7 7 7 7 7 8 9 10 11 12 11 8 7 7 4 2 1 3 5 6 8 7 6 5 5 4 2 2 2 3 6 8 8 9 9 10 10 9 9 9 10 9 9 8 7 7 7 8 7 7 6 6 5 5 5 6 6 6 6 6 6 7 6 6 5 5 6 7 6 6 7 8 8 9 9 8 8
9 8 7 7 8 9 10 10 10 9 9 8 8 7 7 6 7 9 10 9 8 7 4 1 0 3 5 6 7 6 5 5 4 3 3 2 3 3 5 6 7 8 8 8 8 8 8 8 8 8 8 7 7 6 6 6 6 6 6 5 5 5 5 5 5 5 5 6 5 5 4 4 4 5 5 5 5 6 6 6 6 7 8 7 7
8 7 7 7 7 8 9 10 11 11 10 10 9 8 7 6 5 7 8 8 9 8 5 3 3 3 4 5 6 5 4 4 3 2 2 2 3 4 5 6 7 8 8 8 8 7 7 7 7 7 6 6 5 4 4 4 4 4 4 5 5 5 6 6 6 5 5 6 5 4 4 4 4 4 5 5 4 4 5 4 4 5 5 6 6
7 7 7 7 7 8 9 10 10 10 9 10 10 10 9 8 6 6 7 7 8 8 6 5 5 4 4 5 6 5 3 2 2 1 1 2 3 4 5 7 8 8 8 8 8 8 7 6 6 5 4 4 3 3 4 4 4 4 5 5 6 6 6 7 7 6 5 5 5 4 3 3 3 3 4 4 3 3 3 3 3 3 3 4 5
7 6 7 7 7 8 9 11 11 10 9 8 9 10 10 9 8 6 5 6 8 7 6 6 6 6 5 5 6 6 4 2 2 1 1 2 3 3 4 6 7 8 8 8 7 7 6 5 4 3 3 3 3 3 4 4 4 5 6 7 7 7 7 7 7 6 5 4 3 2 2 2 2 2 2 2 2 3 3 3 3 3 2 2 4
8 7 7 7 7 9 10 11 12 12 11 9 9 10 11 10 8 6 5 5 7 8 7 6 6 7 6 5 5 6 6 5 4 3 3 3 3 4 4 5 6 7 7 6 6 5 5 4 4 4 3 3 3 3 4 5 5 6 7 7 8 8 7 7 6 5 4 3 2 1 1 1 1 1 1 1 1 2 3 3 3 4 3 1 2
9 8 8 7 8 9 10 10 11 12 13 12 11 11 11 11 9 6 5 7 8 8 7 7 7 7 6 5 4 4 5 6 6 5 4 4 4 5 5 6 6 6 6 6 6 5 5 5 4 4 4 4 4 4 5 5 6 6 6 7 7 7 7 6 6 4 3 2 2 1 1 1 1 1 1 1 1 2 2 3 3 4 3 2 1
9 9 9 8 7 7 8 10 10 11 12 13 13 12 12 12 10 7 4 6 7 7 7 8 8 8 8 6 5 4 5 7 7 7 6 5 5 5 5 6 6 6 7 7 7 7 6 6 5 5 5 4 5 5 5 5 5 6 6 6 6 6 6 6 6 5 4 3 2 2 2 2 2 1 1 2 3 4 4 4 4 3 3 2 1
Wind_Direction
351 348 351 350 343 335 332 328 317 304 293 280 269 266 262 254 253 259 256 244 246 249 246 240 237 228 215 213 221 224 221 221 224 223 219 217 214 211 210 210 213 216 214 209 220 224 212 203 205 200 196 198 201 208 211 210 209 207 207 209 210 212 212 218 224 198 188 201 195 196 208 208 206 210 212 215 216 212 211 211 209 208 208 208 208
353 347 347 348 344 337 333 331 328 321 308 287 271 269 267 259 254 254 248 242 244 245 241 238 236 230 221 213 212 215 214 214 219 220 216 212 210 211 213 211 206 213 215 206 212 222 214 204 202 196 195 197 196 203 208 206 205 206 208 208 208 209 210 213 219 208 187 196 196 197 208 208 205 210 213 216 218 217 216 217 216 214 212 211 211
356 351 345 343 343 340 335 332 328 324 318 301 284 278 276 271 266 259 252 248 246 242 238 237 237 232 225 218 213 212 212 211 212 214 213 209 207 211 215 212 203 210 217 210 207 214 211 203 200 194 194 197 197 200 204 205 206 205 209 210 206 207 209 209 215 212 192 187 193 196 204 205 205 211 214 216 218 218 219 222 224 222 220 217 215
354 352 348 345 345 344 340 336 331 324 321 314 301 291 283 279 275 267 261 258 252 245 240 237 237 235 229 222 216 211 210 210 208 211 211 208 206 207 211 212 206 210 215 211 208 209 206 201 198 194 194 197 199 199 198 201 205 207 212 213 208 208 212 212 213 212 201 189 187 192 202 204 205 210 213 216 219 219 220 224 227 228 228 226 224
345 345 345 345 345 345 342 339 335 328 322 318 310 299 288 280 276 272 269 263 255 249 245 238 233 232 229 223 216 211 210 210 209 209 209 205 203 205 211 214 209 205 205 202 207 211 205 198 195 192 193 197 199 198 193 194 201 207 213 216 212 213 217 217 214 212 210 198 184 190 199 199 202 211 214 214 216 219 222 226 229 229 229 231 233
341 343 344 343 341 341 341 338 336 330 322 316 307 299 291 283 278 274 270 262 253 249 245 237 231 231 229 223 218 214 212 211 208 207 205 200 200 206 213 213 208 206 203 200 210 215 205 199 197 192 192 197 199 198 195 195 197 204 211 214 215 215 216 217 214 208 209 202 184 188 196 195 198 210 216 213 211 214 218 224 229 230 231 233 236
346 346 347 345 340 337 336 333 331 328 322 313 302 296 292 288 284 277 271 265 256 249 243 237 233 235 233 225 219 216 213 209 206 203 197 195 200 205 208 207 209 211 206 202 213 216 206 203 203 197 196 199 200 199 198 197 199 205 211 213 215 214 215 217 208 193 202 217 207 190 193 199 197 203 217 216 213 214 214 216 224 229 232 235 236
351 350 349 347 343 338 334 332 329 326 321 313 301 293 291 290 289 283 273 269 263 254 247 241 236 235 234 229 222 217 212 207 202 197 192 192 196 197 199 201 207 212 208 206 214 215 207 204 204 202 204 205 206 205 199 198 201 203 209 216 217 214 214 213 195 184 201 218 217 197 191 199 198 196 207 210 210 216 218 217 217 221 229 236 239
355 354 351 348 344 340 336 334 333 329 323 317 308 298 294 293 293 287 276 270 267 260 254 250 240 233 232 228 222 217 210 205 203 200 198 195 191 192 198 199 196 202 208 210 212 209 200 199 202 204 208 210 213 214 211 212 213 209 210 215 217 216 213 209 198 192 200 205 200 192 191 197 198 196 203 209 209 212 220 223 222 216 222 234 242
357 356 354 350 345 343 342 339 339 337 332 322 313 306 301 298 296 292 283 274 269 265 260 254 242 230 226 222 217 215 212 212 211 209 208 205 198 196 200 198 192 198 208 210 209 199 191 196 202 206 210 212 214 214 216 220 221 220 218 215 214 214 210 208 205 200 199 196 191 194 197 201 206 205 208 216 215 212 220 225 223 219 225 232 240
359 355 354 351 348 349 349 347 345 344 341 333 322 314 308 304 300 296 289 281 273 266 259 250 239 230 223 219 218 220 218 215 212 210 209 208 200 195 196 196 195 199 206 209 205 193 187 192 198 203 207 207 204 201 200 203 205 212 218 218 218 218 213 210 208 204 204 199 194 198 201 204 214 216 212 215 218 217 219 220 216 212 220 229 230
4 360 357 356 355 354 353 353 354 353 352 347 337 324 315 308 302 295 289 282 275 267 256 244 236 230 225 222 222 221 216 210 206 204 204 203 196 188 189 193 195 197 201 205 202 191 187 189 191 194 197 196 191 186 185 188 192 199 208 215 220 222 221 219 215 210 210 202 196 203 211 211 217 222 218 218 220 218 216 217 217 210 212 226 228
7 5 3 2 360 357 357 358 358 359 360 356 347 338 331 325 317 308 295 279 266 259 249 237 228 224 222 221 220 217 211 205 201 198 197 195 190 185 188 194 196 196 197 198 195 188 184 184 184 185 188 188 183 179 181 187 190 193 200 208 214 217 221 224 226 224 222 214 206 210 218 222 235 252 247 238 227 213 206 211 214 211 214 224 220
6 6 6 7 5 3 3 3 2 4 7 6 0 355 349 346 342 335 325 295 257 243 235 226 217 213 214 214 212 209 206 201 196 192 191 188 185 186 192 196 194 191 191 191 188 183 180 180 181 183 186 186 183 182 185 189 188 185 185 192 202 210 215 222 227 225 222 217 211 211 220 234 249 255 248 237 224 208 202 207 212 214 217 222 213
8 9 9 9 10 9 7 7 6 7 10 13 13 10 6 4 5 5 8 12 351 222 204 200 200 198 198 198 198 198 198 195 190 187 185 183 184 187 190 190 186 183 183 184 180 176 173 173 175 179 183 186 187 188 189 189 183 172 164 163 172 188 203 214 216 211 211 214 213 216 225 228 224 221 214 208 203 195 191 194 198 198 194 192 187
10 11 11 10 12 14 12 10 9 10 12 17 19 18 17 20 27 34 41 51 61 77 94 108 130 151 165 173 174 178 185 186 183 182 180 179 182 182 180 177 174 172 172 172 171 168 166 167 169 173 179 183 185 187 188 183 170 157 146 136 130 130 130 143 181 193 195 194 189 188 185 169 164 168 166 163 159 151 151 153 152 161 170 170 161
11 10 11 10 11 15 16 15 14 13 16 23 25 24 23 26 37 49 55 59 63 71 79 83 86 95 111 125 130 136 154 163 166 169 173 177 178 175 171 168 165 163 163 163 163 164 164 165 167 171 175 174 171 173 176 171 158 146 136 126 114 106 105 108 117 131 139 142 142 141 138 137 142 145 143 143 142 139 138 134 131 149 183 194 170
11 9 10 11 11 14 19 21 20 18 20 25 29 30 29 30 40 54 62 62 61 67 79 82 79 78 85 91 91 97 117 134 142 148 157 171 179 176 170 165 161 159 158 159 162 165 165 165 169 172 170 164 159 162 168 164 151 141 133 125 117 110 110 116 119 120 124 128 129 130 130 129 132 132 130 133 139 141 140 131 120 127 170 167 121
11 10 11 14 14 17 22 25 25 26 26 27 32 39 40 40 45 56 65 67 62 63 74 80 77 72 75 79 77 78 91 109 125 135 145 162 176 177 171 164 159 155 154 156 159 163 165 166 169 170 164 157 155 157 160 158 149 141 137 134 128 124 125 127 126 126 127 126 124 125 126 124 122 118 114 116 119 122 123 119 108 96 87 87 72
13 16 18 19 19 21 26 31 33 33 33 32 34 42 48 51 53 55 60 65 64 62 67 72 72 70 70 71 69 66 70 86 109 129 146 160 168 172 170 165 159 153 150 150 151 155 160 164 165 165 161 156 156 157 158 162 161 157 157 152 143 139 139 137 135 133 130 126 123 122 120 118 114 108 103 102 98 96 98 102 104 101 97 97 90
18 23 26 26 24 24 31 40 44 42 39 37 37 41 47 55 59 59 58 61 61 60 61 64 65 65 66 65 63 60 59 67 88 115 147 160 163 166 166 162 158 152 145 141 140 142 148 154 158 161 161 161 162 165 169 178 183 174 166 160 152 147 144 140 137 134 130 124 120 117 114 111 106 100 95 92 89 89 89 89 98 108 107 103 99
24 30 32 31 29 28 33 44 51 51 48 44 44 45 45 51 59 64 63 62 60 56 56 58 60 60 60 59 57 56 55 55 63 81 125 154 159 161 159 155 154 150 140 132 129 128 131 139 147 158 165 167 169 172 174 174 170 164 161 157 151 148 146 141 136 132 127 121 117 112 107 101 94 90 87 83 80 82 85 86 91 102 112 115 110
28 34 37 37 36 35 35 42 52 57 57 54 50 49 48 48 53 59 62 62 60 55 54 57 58 58 57 57 56 58 58 56 56 61 83 130 148 154 154 150 150 148 138 127 122 120 120 121 126 141 156 159 157 155 154 153 153 152 151 149 146 145 144 139 135 131 125 119 114 106 96 89 83 80 77 74 72 74 75 77 83 89 101 113 114
31 33 35 39 41 41 42 46 51 56 59 57 52 48 47 46 47 50 54 57 58 56 53 55 58 59 58 57 58 60 62 63 63 65 75 101 122 133 137 137 139 139 130 120 117 117 115 114 115 124 134 137 136 135 136 138 140 139 139 140 140 140 137 133 131 126 118 110 103 94 88 84 80 78 77 75 76 77 77 77 83 88 95 103 108
33 31 32 37 41 44 49 52 54 55 57 57 54 50 48 47 45 44 47 53 57 57 55 55 55 56 56 57 59 62 64 67 69 72 80 93 104 112 117 120 125 126 120 114 113 114 114 116 119 123 126 127 129 130 128 129 131 132 133 136 136 135 132 128 125 118 109 101 97 93 88 86 85 86 88 91 92 92 89 86 86 90 94 97 97
35 34 34 36 39 43 49 53 54 57 59 60 60 58 55 53 50 45 44 48 53 57 59 58 57 56 54 55 58 63 68 72 74 77 84 91 96 101 106 109 112 113 112 112 112 113 114 116 120 123 123 124 125 125 124 125 128 130 132 134 133 131 129 126 123 116 107 101 100 98 95 94 94 94 96 95 94 97 100 99 96 98 100 99 95
34 34 34 35 37 41 45 49 52 55 57 59 61 61 58 56 54 49 44 43 46 51 56 58 60 60 58 57 58 61 64 69 74 79 86 93 98 101 104 107 109 109 110 110 111 112 113 116 120 123 124 123 123 123 123 125 127 126 126 127 126 125 125 125 124 118 112 107 106 104 103 102 98 94 91 87 85 91 97 97 95 97 101 103 97
32 32 33 36 39 40 43 45 49 51 53 54 56 56 56 57 57 55 50 47 47 49 53 56 61 64 65 66 67 67 67 67 69 74 82 92 101 105 107 109 109 110 111 111 111 113 115 117 120 121 121 120 121 121 121 122 120 118 116 115 113 113 114 116 116 115 113 111 110 108 106 102 96 90 87 84 82 86 91 90 86 86 87 91 90
31 31 32 36 41 43 43 44 47 50 52 53 54 53 52 53 56 57 55 53 52 54 56 58 62 66 68 66 66 71 75 75 74 77 83 88 93 98 101 102 103 106 109 111 113 115 116 116 117 117 118 118 118 116 115 114 112 111 110 110 110 111 111 109 108 108 109 109 109 108 105 100 96 91 88 84 81 84 88 87 84 83 83 84 83
27 29 30 32 37 42 44 45 47 49 52 55 57 57 54 51 51 53 53 52 54 56 58 59 60 64 67 65 61 64 73 82 87 92 96 95 93 93 93 91 90 93 98 104 110 114 114 114 114 114 115 115 114 112 112 112 110 109 109 110 112 112 109 106 107 111 112 110 108 106 102 98 94 90 88 84 81 83 87 86 82 82 84 84 82
21 23 26 27 30 38 43 46 46 47 49 51 54 57 57 55 52 50 50 50 51 54 58 60 60 61 64 66 65 65 70 85 98 100 100 100 98 95 90 83 77 74 69 79 104 113 115 114 113 113 114 113 112 113 114 113 112 110 110 110 111 111 109 108 110 112 111 108 105 102 99 95 92 89 89 88 87 86 84 81 78 80 81 79 75
25 26 28 28 26 28 35 41 44 46 47 47 48 52 54 53 50 47 44 44 45 48 53 57 57 57 59 63 66 67 71 86 98 99 97 96 94 90 82 72 68 65 57 76 103 113 116 115 112 112 112 112 113 116 117 116 114 112 112 111 111 112 112 112 112 111 107 103 101 98 95 93 93 93 92 91 92 90 84 79 77 77 76 72 67
31 30 29 30 29 25 21 23 32 41 45 45 47 50 52 52 49 46 44 43 42 44 48 52 54 53 52 54 59 63 70 83 95 97 97 94 90 84 74 66 66 65 63 81 102 111 114 114 113 112 113 114 116 118 118 117 117 116 115 113 112 112 111 110 110 108 104 100 98 96 95 94 94 94 91 88 88 86 80 75 71 69 66 64 61
34 30 27 27 28 27 23 17 16 25 38 44 47 52 55 54 50 46 46 45 43 43 44 46 49 51 50 48 50 53 61 78 98 115 120 116 109 96 79 73 76 72 68 84 104 113 115 115 114 114 116 118 119 119 118 118 119 117 115 113 111 110 109 108 106 104 101 99 97 95 94 94 92 90 88 86 84 80 76 69 64 61 59 57 59
33 31 30 29 27 27 28 26 20 12 14 32 43 51 57 56 49 46 44 44 44 46 46 46 46 45 42 40 41 44 53 65 82 121 134 131 126 116 95 85 90 89 85 95 110 118 119 119 119 119 121 122 122 121 121 120 118 116 114 112 110 108 106 105 105 103 101 99 97 94 92 90 88 85 83 81 78 74 71 67 62 58 54 53 57
31 31 34 34 30 28 29 29 27 21 8 353 1 28 43 45 43 42 42 40 42 46 48 48 47 45 43 40 36 34 40 51 65 89 121 128 119 103 82 85 98 103 104 110 119 123 123 122 123 124 126 125 123 122 120 119 117 115 113 111 110 108 105 104 103 102 99 97 96 94 90 88 86 82 80 78 75 72 70 68 66 61 55 53 56
28 29 33 36 34 32 32 31 29 27 22 8 344 334 354 8 7 16 26 31 38 42 44 44 44 43 44 44 38 30 23 19 15 7 338 281 354 20 45 82 104 111 115 122 128 129 127 126 126 127 128 128 125 122 120 118 117 116 114 112 109 107 106 104 103 102 99 96 95 93 90 88 84 80 77 76 75 74 72 71 72 69 59 52 51
24 24 30 37 38 38 37 35 32 32 30 24 7 345 331 320 315 321 327 336 11 32 32 31 31 32 33 30 25 16 6 352 337 316 300 293 298 326 63 109 115 117 122 130 135 133 130 130 131 130 130 130 128 124 121 120 119 117 114 110 107 106 104 102 101 100 97 94 93 91 89 87 83 78 76 76 75 74 73 69 69 69 60 50 46
20 18 23 34 42 42 41 40 38 36 35 32 22 10 352 327 307 300 304 315 336 352 355 1 5 7 8 6 1 356 350 342 329 309 293 286 274 220 167 148 135 129 131 136 138 135 133 134 134 133 133 134 132 129 125 123 121 118 112 106 103 102 101 101 100 98 95 93 91 89 88 87 83 77 73 73 74 73 74 74 69 63 56 49 43
17 16 18 25 36 40 41 44 43 40 38 36 31 21 8 352 330 306 297 302 309 310 313 320 327 334 344 352 353 353 350 347 342 330 309 278 215 177 161 150 142 138 139 141 140 137 136 136 137 137 136 135 133 131 127 124 122 118 111 105 101 100 100 102 101 98 95 92 89 90 92 90 84 78 75 78 81 80 78 77 73 63 55 48 42
16 17 16 18 26 33 35 43 46 41 39 38 33 26 18 13 4 340 312 301 304 312 316 305 291 308 335 353 358 360 1 2 4 10 21 78 144 154 153 148 142 141 144 144 142 139 136 135 136 138 137 134 131 128 126 125 123 118 111 105 102 99 98 100 101 100 98 94 90 95 100 95 84 78 78 81 84 83 78 73 66 60 54 45 40
17 16 12 12 20 27 26 36 42 38 35 36 34 27 21 18 16 9 353 332 320 328 333 311 275 300 338 358 5 9 13 16 18 23 40 72 111 138 148 147 143 142 145 146 144 142 139 134 132 132 132 130 127 124 124 126 127 124 117 109 103 99 96 98 103 105 104 99 97 101 103 97 85 77 76 76 76 75 73 70 63 56 50 41 34
14 12 7 7 14 21 22 21 19 14 14 19 21 22 22 19 16 14 12 1 348 351 359 2 269 323 344 360 11 17 20 20 20 20 28 64 108 136 147 148 145 143 143 143 143 143 143 141 137 134 132 130 127 126 128 132 134 133 126 117 109 106 106 109 113 114 109 104 102 103 101 95 87 80 74 71 71 69 67 66 59 50 43 38 36
9 7 5 6 15 23 26 21 8 354 348 350 355 7 18 19 14 12 12 8 358 360 18 90 91 340 343 2 16 20 18 18 23 31 41 61 104 137 149 154 154 150 145 141 140 140 142 145 145 142 139 138 135 132 133 136 140 143 141 136 129 129 132 132 129 125 120 112 107 106 101 92 89 87 78 71 67 64 61 58 51 40 35 37 44
12 10 7 7 11 16 17 14 8 1 351 341 336 341 354 7 11 10 10 7 358 351 350 133 175 324 337 356 8 11 11 14 20 36 58 76 99 125 141 152 159 159 153 149 146 143 142 143 144 144 142 141 138 135 135 138 143 148 151 153 153 155 157 155 145 135 131 125 114 108 103 93 85 79 72 65 59 55 53 52 47 39 34 35 46
15 15 11 2 359 360 360 359 1 3 2 354 339 327 325 334 349 358 1 2 357 348 333 290 263 285 319 336 342 348 1 9 13 30 71 103 118 127 135 143 151 157 159 156 150 145 142 142 142 143 144 146 148 151 157 163 168 170 169 167 165 164 166 165 155 139 133 133 127 113 100 90 72 58 52 49 46 45 44 44 49 49 38 34 42
11 8 3 358 356 358 356 351 348 351 360 1 350 334 319 311 315 334 346 348 348 345 332 305 289 286 295 303 307 316 337 351 355 16 112 154 152 144 142 142 144 146 148 146 142 140 139 141 144 148 156 167 177 185 191 198 199 193 184 177 171 166 164 164 158 146 132 129 125 109 86 68 47 36 35 31 28 32 31 30 44 57 45 33 37
5 360 355 354 356 357 356 353 349 345 343 342 339 336 328 312 297 295 311 328 335 333 323 310 302 295 287 287 292 298 302 296 274 238 197 198 192 176 166 159 152 148 146 145 145 145 147 152 159 166 171 176 178 178 180 183 180 175 171 172 171 167 162 158 153 145 133 122 115 100 77 60 42 36 40 34 26 24 17 10 21 31 27 24 30
2 356 347 344 345 346 349 353 354 352 345 333 322 324 328 323 308 288 280 301 318 317 307 297 292 287 286 290 290 287 283 277 263 239 210 204 204 196 188 181 170 163 159 157 158 161 163 165 166 164 161 159 158 157 160 163 164 164 165 167 167 164 160 156 150 145 139 131 125 124 121 104 86 76 77 69 39 13 7 2 3 5 1 359 19
356 353 346 339 335 335 340 345 349 352 352 343 328 319 319 323 326 314 279 275 289 298 296 288 280 278 284 294 293 283 275 266 258 246 225 210 208 204 201 197 192 184 180 178 176 176 175 174 171 165 160 156 153 149 148 150 155 158 161 164 166 166 167 168 168 163 159 153 145 145 156 155 146 127 80 38 359 334 329 327 330 339 346 343 352
349 348 346 342 336 334 339 343 346 351 352 348 339 328 318 319 331 338 303 275 278 286 290 288 284 280 282 285 286 284 275 259 247 242 234 222 215 213 211 210 208 204 199 194 190 185 180 177 174 171 169 165 160 155 149 145 145 148 150 155 163 172 181 189 194 193 189 187 187 183 186 184 176 165 12 359 345 323 303 291 291 301 310 309 306
Height
804 802 800 798 797 794 794 793 792 791 790 789 788 787 786 785 784 784 785 786 787 788 789 790 791 792 793 794 794 795 796 797 800 802 804 805 806 806 808 810 812 813 815 818 821 824 824 825 827 828 829 830 832 833 834 836 837 839 840 841 842 843 844 845 845 846 848 850 851 853 854 856 858 859 860 861 862 863 864 865 866 866 868 869 869
804 802 801 799 796 793 791 790 789 789 788 787 787 785 784 783 784 785 785 786 786 786 787 787 788 789 790 791 792 793 795 795 797 799 801 802 803 804 805 808 810 810 812 815 819 823 823 823 824 825 826 828 829 830 832 834 836 837 838 839 840 841 842 843 844 845 847 849 850 851 852 854 856 857 858 859 861 862 863 864 864 865 866 867 868
802 801 800 798 796 793 790 788 788 787 787 786 785 784 782 782 783 784 784 785 785 785 785 786 786 786 787 788 789 791 792 793 794 796 797 799 800 801 803 805 807 808 809 812 816 820 821 821 822 823 824 825 827 828 830 832 834 835 836 837 838 839 840 842 843 844 846 847 849 850 851 853 854 855 857 858 859 860 861 862 863 864 865 866 867
801 800 798 796 795 792 789 788 786 786 785 784 783 782 781 781 781 782 782 782 783 784 784 784 784 785 785 786 787 788 789 791 792 793 795 796 797 799 801 803 805 805 807 810 814 817 819 819 819 820 822 823 824 826 828 830 831 832 834 835 836 837 839 840 842 843 844 846 848 849 850 851 853 854 855 856 857 858 860 861 861 862 863 864 865
803 800 798 795 793 791 789 787 785 784 783 782 781 780 779 779 779 780 780 780 781 782 782 783 783 783 783 783 785 786 787 788 789 791 792 794 795 797 799 802 804 805 805 808 812 816 817 817 817 818 819 821 822 824 826 828 829 830 832 833 834 835 837 838 840 842 843 844 846 848 849 850 851 852 853 854 856 857 858 859 860 861 862 863 864
804 801 799 796 793 790 788 786 784 782 781 780 780 778 778 778 778 778 778 778 779 779 780 780 780 781 781 782 783 784 785 786 787 789 790 792 793 794 797 800 803 803 803 805 811 815 815 815 815 816 817 818 820 822 824 825 827 829 830 831 832 833 834 836 838 840 842 843 845 846 847 849 850 850 851 853 854 855 856 857 858 859 860 861 862
803 801 799 796 794 790 788 785 783 781 779 778 778 777 776 776 776 776 776 776 776 777 777 777 778 779 779 780 780 782 783 784 786 788 789 790 791 792 795 798 801 801 801 804 810 814 814 813 813 814 815 817 818 820 821 823 825 827 828 829 831 832 833 834 836 839 842 843 844 845 846 847 848 849 850 851 852 853 854 855 856 857 858 859 860
803 801 799 797 794 791 788 785 783 780 778 777 776 775 774 774 774 774 773 773 773 774 774 775 775 776 777 778 778 779 780 782 784 786 787 789 790 791 794 797 800 801 801 804 810 812 812 812 812 813 814 815 816 818 819 821 823 825 827 828 830 831 832 833 835 837 840 842 843 844 844 845 846 847 848 849 850 851 852 853 854 855 856 857 858
805 803 801 798 795 792 788 785 782 780 777 775 774 774 773 772 771 771 770 770 770 771 771 772 772 773 774 775 776 777 778 779 781 783 785 787 789 790 792 795 798 800 801 805 808 809 809 810 811 812 813 814 815 816 817 819 820 822 824 826 829 830 831 832 833 835 837 839 840 841 842 844 844 845 846 847 847 848 849 851 852 854 855 855 856
808 806 803 801 797 793 790 786 783 780 777 775 773 773 772 770 769 768 768 768 767 768 768 769 770 771 772 773 773 774 775 776 778 780 783 785 786 788 790 793 796 798 801 805 806 805 806 808 810 811 812 813 814 815 816 817 819 820 821 823 826 828 829 830 831 832 834 835 837 839 840 841 842 843 844 844 845 846 848 849 851 852 853 854 855
811 808 805 802 798 794 790 787 784 781 778 776 773 772 771 770 769 767 766 766 766 765 766 767 767 768 769 770 770 771 772 774 776 779 781 783 785 786 788 791 794 796 800 805 805 804 805 807 809 810 811 812 813 814 815 816 817 818 820 821 824 826 827 828 829 830 831 832 834 835 837 838 839 841 842 842 843 845 846 848 849 851 852 853 853
813 810 807 803 799 795 792 788 786 782 779 777 774 772 771 769 768 766 765 764 764 763 764 764 765 765 766 766 767 768 770 772 775 778 780 782 783 785 787 790 793 795 799 802 804 804 805 806 807 809 810 811 812 812 813 814 815 817 818 820 822 824 825 826 827 829 830 830 832 833 834 836 837 839 841 841 842 843 844 846 847 849 850 851 851
814 811 808 804 801 797 794 790 787 784 781 778 775 773 771 769 768 766 764 763 762 762 762 762 762 763 763 763 765 767 769 771 774 776 778 780 782 784 786 789 792 794 798 800 802 802 804 804 805 807 808 809 810 811 812 813 814 816 817 819 821 822 823 824 825 827 828 829 831 833 834 835 837 838 839 841 841 841 843 844 846 847 848 849 850
815 813 810 806 803 800 796 793 789 786 783 780 777 775 772 770 768 766 764 763 762 762 762 762 762 762 762 763 764 767 769 770 772 774 777 779 781 783 785 788 791 793 796 798 799 801 802 803 804 805 807 808 809 810 811 812 813 815 817 818 820 821 822 823 824 825 827 828 830 832 833 835 836 836 837 839 841 841 841 843 844 845 847 847 849
816 814 811 808 804 801 798 795 791 788 785 782 779 777 775 772 770 768 767 765 764 764 763 763 763 762 762 763 764 767 768 770 772 774 775 777 779 782 784 787 789 792 794 796 798 799 801 802 803 804 806 807 808 809 810 811 812 814 816 817 819 819 820 821 822 824 825 827 828 830 831 833 835 836 837 838 840 839 840 842 843 844 845 846 847
817 815 812 809 806 803 800 797 794 791 788 785 782 780 778 775 773 771 769 768 767 766 765 765 765 763 763 763 765 767 769 770 771 773 774 776 778 781 784 786 789 791 793 796 797 799 800 801 802 804 805 806 807 808 809 810 812 814 815 817 819 819 820 821 822 823 824 826 827 829 831 833 834 835 836 837 838 839 840 841 842 843 844 845 846
818 816 814 811 808 805 802 800 797 794 791 788 786 783 781 779 776 773 772 771 770 770 769 768 767 765 764 765 766 769 771 771 771 772 774 776 778 781 784 786 789 791 793 795 797 798 799 801 802 803 804 805 806 808 809 810 812 813 815 817 819 820 821 823 823 824 825 826 828 830 832 834 835 835 836 837 837 838 840 841 842 843 843 844 845
820 818 816 813 810 807 805 802 799 796 794 792 789 787 785 783 780 777 776 775 774 775 773 770 769 768 766 767 770 772 772 772 772 772 774 777 779 782 784 786 789 791 792 794 796 797 799 800 802 803 804 805 806 808 810 811 812 813 815 817 819 822 824 824 824 825 826 828 829 830 832 835 837 837 837 837 837 838 839 840 841 842 843 843 844
823 821 818 815 813 810 807 804 802 799 797 795 793 791 789 787 785 782 780 779 779 778 774 771 771 772 770 771 774 775 774 773 774 774 777 780 782 783 784 787 789 791 792 794 795 797 799 800 802 803 804 805 807 809 811 812 812 814 815 817 820 822 825 826 826 827 827 829 830 831 833 836 838 837 837 837 837 838 839 840 841 842 843 844 845
826 824 821 818 815 812 809 806 804 802 800 799 797 795 792 790 789 786 784 783 782 780 777 775 775 775 774 776 778 778 777 776 776 778 782 784 785 785 786 787 789 791 792 794 795 797 799 800 802 804 805 806 808 810 811 812 813 814 815 817 819 822 824 826 827 828 828 830 832 833 835 837 837 837 837 837 838 838 839 839 840 842 843 844 845
828 826 823 820 817 815 812 809 807 805 803 802 800 798 796 794 792 790 788 786 785 784 782 781 779 777 778 780 781 781 781 781 781 784 787 788 788 788 788 789 790 791 793 795 796 798 800 801 803 805 806 808 809 810 812 812 813 814 815 817 819 821 823 826 828 829 829 831 833 834 836 837 837 837 837 838 838 839 839 840 840 841 842 844 845
830 828 825 822 820 817 815 812 810 808 806 805 803 802 801 798 796 793 791 790 789 788 787 785 782 781 781 783 784 784 785 786 787 789 791 791 790 790 791 791 792 792 793 796 798 799 801 803 804 805 807 808 810 811 812 812 813 814 816 818 819 821 823 825 828 829 831 832 834 835 836 837 837 837 838 838 839 839 839 840 840 841 842 843 844
833 830 827 825 822 820 817 815 813 811 809 808 806 805 804 803 800 798 795 793 793 792 791 789 787 787 788 789 789 790 790 792 793 794 794 794 793 793 793 794 794 794 795 797 800 802 803 805 807 808 809 809 810 811 812 814 815 816 817 819 820 822 824 826 828 830 831 833 834 835 836 837 837 838 838 839 839 839 840 840 841 841 842 842 843
835 832 830 828 825 823 821 818 816 814 812 810 809 808 808 807 805 803 801 798 796 796 796 795 794 794 795 796 796 796 797 797 798 798 799 798 796 796 796 797 798 798 799 801 803 804 806 807 810 812 812 811 811 813 815 817 817 818 819 821 822 824 826 828 830 831 832 833 834 836 837 837 838 838 838 839 839 839 840 841 841 842 842 843 843
837 835 833 831 828 826 824 822 819 818 815 813 812 811 811 810 808 807 806 803 801 801 801 801 800 800 800 801 801 802 802 802 802 803 803 802 801 800 800 801 802 802 803 805 806 807 808 809 812 815 815 814 814 815 817 819 820 821 822 824 825 827 828 830 831 832 833 834 836 837 838 838 839 839 839 840 840 840 841 841 842 842 843 844 844
839 837 835 834 832 829 827 825 823 821 819 817 816 815 814 813 811 811 810 808 807 805 804 804 804 805 805 806 807 808 808 807 807 808 808 806 806 805 805 806 806 807 807 809 809 810 811 812 814 817 818 817 817 818 821 823 824 824 825 826 827 828 829 831 832 832 834 836 837 839 840 840 840 841 841 841 841 841 841 842 843 844 844 845 846
841 839 837 836 834 832 830 828 826 824 823 821 819 818 817 815 814 814 813 813 811 810 808 808 808 809 810 811 812 812 812 811 811 812 811 810 810 810 810 811 811 811 812 813 813 814 816 817 818 820 820 820 820 822 824 826 826 827 828 828 829 829 830 831 832 833 835 837 838 840 841 842 842 842 842 842 842 842 842 843 844 844 845 845 846
843 841 839 838 836 834 832 831 829 827 826 825 823 821 820 819 817 817 817 817 816 815 813 813 813 813 814 815 816 816 816 816 816 816 816 815 815 815 815 815 815 814 816 817 818 819 820 821 822 823 823 822 824 826 828 828 828 829 830 830 831 831 832 833 834 835 837 838 840 841 842 842 843 843 843 843 843 843 843 843 844 844 845 845 846
844 843 841 840 838 836 835 833 832 831 830 828 826 825 824 823 822 821 821 820 820 819 818 818 817 817 817 818 819 819 820 820 821 821 821 821 820 820 820 820 820 819 820 821 823 824 825 825 826 826 826 825 826 828 829 830 830 831 832 832 833 834 835 836 837 838 839 840 841 842 843 843 843 844 844 844 844 844 845 845 845 845 846 846 847
846 844 843 841 840 838 837 836 835 834 833 832 830 829 828 827 826 825 825 824 823 823 822 822 822 821 821 821 822 822 823 824 824 824 824 824 825 825 825 825 825 824 824 825 826 827 827 828 829 829 829 828 829 830 831 832 833 833 834 835 835 836 837 838 839 840 841 842 842 843 843 843 844 844 845 845 846 846 846 846 847 847 847 848 848
847 846 845 843 842 841 840 838 837 836 836 835 834 832 831 831 830 829 829 828 827 826 825 825 825 825 825 824 825 825 826 827 827 827 827 827 828 828 828 828 828 828 828 827 827 828 830 830 831 832 831 831 831 833 834 835 835 836 837 837 838 839 840 841 842 842 842 843 843 843 843 844 844 845 846 847 848 848 849 848 849 849 849 849 849
849 847 846 845 843 842 842 841 840 839 838 837 837 835 834 833 833 832 832 831 830 829 829 828 828 828 828 828 828 828 828 829 829 830 830 830 830 830 830 831 830 830 830 829 829 830 832 832 833 833 833 834 835 836 837 838 838 839 840 840 841 841 842 842 843 844 844 844 844 844 844 844 845 846 847 848 849 850 850 850 850 850 850 849 849
851 849 848 846 845 844 843 843 841 841 840 839 839 838 837 836 836 835 834 834 833 832 831 831 830 830 830 831 831 830 831 831 831 832 832 832 832 833 833 832 833 833 833 832 831 832 833 834 834 835 836 837 838 839 840 841 841 842 842 842 843 843 843 844 845 845 845 845 845 845 846 846 847 848 849 850 850 851 851 851 850 850 850 849 849
853 852 850 849 847 846 845 844 843 842 842 841 841 840 839 839 839 838 837 837 836 835 834 833 833 833 832 833 833 833 833 833 833 833 833 834 834 834 834 834 834 834 834 833 833 834 835 835 836 837 839 840 842 843 843 844 844 844 844 844 844 845 845 846 846 846 847 847 847 847 847 848 849 849 850 850 851 851 851 851 851 850 850 850 850
855 853 852 851 850 848 847 846 845 844 844 843 843 842 841 841 841 840 840 839 838 838 837 836 835 835 835 835 835 834 834 834 834 835 835 835 835 835 835 835 835 835 835 835 836 836 837 837 838 840 842 844 845 846 846 846 846 846 846 846 846 846 847 847 848 848 848 848 849 849 849 849 850 850 851 851 851 851 852 852 852 852 852 851 851
856 855 854 853 852 851 850 848 847 846 845 845 845 844 844 844 843 843 842 842 841 841 840 839 838 838 837 837 837 836 836 836 836 836 836 837 837 837 837 837 836 836 836 837 838 839 839 839 840 842 844 846 847 848 848 847 847 847 847 847 847 847 848 848 849 850 850 850 850 850 850 851 851 851 852 852 852 852 853 853 853 853 853 853 852
858 857 856 855 854 853 852 851 849 848 847 846 846 846 846 845 845 844 844 844 843 843 843 842 841 841 840 840 839 839 839 838 838 838 838 838 838 838 838 838 838 838 838 839 840 841 841 842 843 844 846 847 848 848 848 848 849 849 849 849 849 849 849 850 850 851 852 852 852 852 852 852 852 853 853 853 853 854 854 855 855 855 854 853 852
859 858 857 856 855 854 853 852 851 850 849 848 848 847 847 847 846 846 845 845 845 845 844 844 843 843 842 842 841 841 841 840 840 839 839 839 839 839 839 839 839 839 840 841 842 842 843 843 844 846 847 848 849 849 849 850 850 850 850 850 850 850 850 851 852 853 853 853 853 853 853 854 854 854 854 855 855 856 856 856 855 855 854 854 853
860 859 858 857 856 856 855 854 853 852 851 850 849 848 848 847 847 847 846 846 846 846 846 845 845 844 844 843 843 842 841 841 840 840 839 839 839 840 840 840 840 841 841 842 843 844 845 845 846 847 848 849 850 850 850 850 851 851 852 852 851 851 852 853 854 855 855 855 855 855 855 855 855 856 856 856 856 857 856 856 856 855 855 854 854
862 860 859 858 857 857 856 855 854 853 852 851 850 849 849 848 848 847 847 847 847 847 846 846 846 845 845 844 843 843 842 841 841 840 840 840 840 840 840 841 841 842 843 843 844 845 846 847 848 849 849 850 851 851 851 851 852 852 852 852 852 853 854 855 856 856 856 856 856 856 856 857 857 857 857 857 857 857 857 856 856 856 856 855 855
863 861 860 859 858 857 857 856 855 855 854 852 851 850 850 849 848 848 847 847 847 847 847 846 846 846 845 845 844 843 843 842 842 841 841 841 841 841 842 842 843 843 844 845 846 847 847 848 849 850 850 851 851 851 852 852 852 853 853 853 854 855 855 856 857 857 857 857 858 858 858 858 858 858 858 858 857 857 857 857 857 856 856 856 855
863 862 861 860 859 858 858 857 856 855 855 853 852 851 850 850 849 848 848 847 847 847 847 846 847 846 846 846 845 844 843 843 843 842 842 842 842 842 843 843 844 845 845 846 847 848 849 849 850 850 851 851 852 852 852 853 853 854 854 855 856 856 857 857 858 858 859 859 859 859 859 859 859 859 859 858 858 858 858 857 857 857 856 856 855
864 863 862 861 860 859 858 858 857 856 855 854 853 852 852 851 850 849 848 848 847 847 847 847 847 847 847 847 846 845 845 845 844 844 843 843 843 844 844 845 845 846 846 847 848 849 849 850 850 851 851 852 852 853 853 854 854 855 856 856 857 858 858 859 860 860 860 861 861 860 860 860 860 860 859 859 859 859 858 858 857 857 856 856 855
864 863 862 861 861 860 859 858 858 857 856 855 854 853 852 851 851 850 849 848 848 848 847 848 848 848 848 847 847 847 847 846 846 845 845 845 845 845 845 846 846 847 847 848 849 850 850 851 851 852 852 853 853 853 854 854 855 856 856 857 858 859 860 860 860 861 861 861 861 861 861 860 860 860 860 860 859 859 858 858 858 857 857 857 857
864 864 863 862 861 860 859 859 858 857 856 855 854 854 853 852 851 851 850 849 849 848 848 848 848 848 848 848 848 848 848 848 847 847 847 847 846 846 846 847 847 848 849 849 850 851 851 852 852 853 853 854 854 854 855 855 856 856 857 858 859 860 860 860 861 861 861 861 861 861 861 861 861 860 860 860 859 859 859 859 859 858 858 858 858
865 864 863 862 862 861 860 859 858 857 856 855 854 854 853 852 852 851 851 850 850 849 849 849 849 848 849 848 848 848 848 848 848 848 848 848 848 848 848 848 849 849 850 850 851 851 852 853 853 854 854 854 855 855 856 856 857 857 858 858 859 859 860 860 860 861 861 861 861 861 861 861 861 860 860 860 860 860 860 860 859 859 859 859 859
864 864 863 863 862 861 860 859 858 857 856 855 854 854 853 852 852 852 851 850 850 849 849 849 849 849 849 849 849 849 849 849 849 849 849 849 849 849 849 850 850 850 851 851 852 852 853 853 854 854 855 855 855 856 856 856 857 857 858 858 858 859 860 860 860 861 861 861 861 861 861 861 861 861 861 861 860 860 860 860 860 860 860 860 859
864 864 863 863 862 861 860 859 858 857 856 855 854 853 852 852 852 851 851 850 850 850 849 849 849 849 849 849 849 849 849 849 849 849 849 850 850 850 850 851 851 851 852 852 852 853 853 854 854 854 855 855 855 855 856 856 856 857 857 858 858 859 859 860 860 860 861 861 861 861 861 861 861 861 861 861 861 861 861 861 860 860 860 860 860
864 864 863 862 862 861 860 859 858 857 856 855 854 853 852 851 851 851 851 850 850 850 849 849 848 848 848 848 849 849 849 849 849 850 850 850 850 850 851 851 851 852 852 853 853 853 854 854 854 855 855 855 855 856 856 856 857 857 857 858 858 859 859 859 860 860 860 860 861 861 861 861 861 861 861 861 861 861 861 861 861 860 860 860 860
864 863 863 862 862 861 860 859 858 857 856 855 854 853 852 851 851 850 850 849 849 849 849 849 848 848 848 848 848 848 848 849 849 850 850 850 850 850 851 851 852 852 853 853 853 854 854 854 855 855 855 856 856 856 856 857 857 857 857 858 858 858 859 859 860 860 860 861 861 861 861 861 861 861 861 861 861 861 861 861 860 860 860 860 860
863 863 862 861 861 860 860 859 858 857 856 855 853 852 852 851 850 850 849 849 849 849 849 848 848 848 848 848 848 848 848 848 849 849 850 850 850 850 850 851 852 852 853 853 854 854 854 855 855 856 856 856 856 857 857 857 857 857 857 858 858 858 859 859 860 860 860 861 861 861 861 861 861 861 861 861 861 860 860 860 860 860 860 859 859